Regional Weather Roundup
Issued by NWS

Home | Current Version | Previous Version | Graphics & Text | Print | Product List | Glossary Off
Versions: 1 2 3 4 5 6 7 8 9 10 11 12 13 14 15 16 17 18 19 20 21 22 23 24 25 26 27 28 29 30 31 32 33 34 35 36 37 38 39 40 41 42 43 44 45 46 47 48 49 50

000
ASUS43 KMKX 182221
RWRWI

WISCONSIN REGIONAL WEATHER ROUNDUP
NATIONAL WEATHER SERVICE MILWAUKEE/SULLIVAN WI
500 PM CDT MON SEP 18 2017

NOTE: "FAIR" INDICATES FEW OR NO CLOUDS BELOW 12,000 FEET WITH NO
SIGNIFICANT WEATHER AND/OR OBSTRUCTIONS TO VISIBILITY.

WIZ001-002-006>008-014>016-023>028-182300-
NORTHWEST WISCONSIN

CITY           SKY/WX    TMP DP  RH WIND       PRES   REMARKS
SUPERIOR ARPT  CLOUDY    60  51  71 S7        30.01S
ASHLAND        CLOUDY    58  50  75 SE3       30.04F
HAYWARD        LGT RAIN  54  50  86 S8        30.04R
SIREN          CLOUDY    55  49  80 S8        30.03S
CUMBERLAND     CLOUDY    52  50  93 SE7       30.02F
RICE LAKE      RAIN      53  52  94 SE6       30.04S
CHETEK         DRIZZLE   55  53  95 CALM      30.04S
LADYSMITH      LGT RAIN  56  54  93 E6        30.05F
EAU CLAIRE     RAIN      57  55  93 CALM      30.03S FOG
MENOMONIE      RAIN      55  55 100 CALM      30.04S
NEW RICHMOND   CLOUDY    54  51  92 SE7       30.02S
OSCEOLA        CLOUDY    55  55 100 SE7       30.04F
$$

WIZ003>005-009-010-017-018-182300-
NORTH CENTRAL WISCONSIN

CITY           SKY/WX    TMP DP  RH WIND       PRES   REMARKS
MANITOWISH WTR RAIN      54  54 100 E5        30.06F
ARBOR VITAE    LGT RAIN  57  55  92 CALM      30.06F
WOODRUFF       LGT RAIN  57  55  92 CALM      30.06F
RHINELANDER    CLOUDY    59  56  89 E8        30.07F
EAGLE RIVER    RAIN      55  54  94 CALM      30.07F
LAND O LAKES   LGT RAIN  56  54  93 E5        30.09F
PHILLIPS       LGT RAIN  55  55 100 SE3       30.06F
TOMAHAWK         N/A     59  54  84 CALM      30.08R
MEDFORD        LGT RAIN  59  56  88 CALM      30.07S
MERRILL        CLOUDY    63  55  77 E5        30.06F
$$

WIZ029-030-035-036-043>047-182300-
CENTRAL WISCONSIN

CITY           SKY/WX    TMP DP  RH WIND       PRES   REMARKS
WAUSAU         CLOUDY    64  54  69 E3        30.04S
MOSINEE        CLOUDY    64  55  72 E6        30.06R
MARSHFIELD     CLOUDY    64  53  67 NW3       30.06R
STEVENS POINT  CLOUDY    65  55  68 E7        30.04S
WAUPACA        CLOUDY    72  55  55 SE9       30.03F HAZE
WAUTOMA        MOSUNNY   73  57  57 E9        30.02F
WISC RAPIDS    CLOUDY    70  56  61 E9        30.03F
CAMP DOUGLAS   CLOUDY    70  55  60 NW6       30.03F
$$

WIZ011>013-019>022-031-037>040-048>050-182300-
NORTHEAST WISCONSIN

CITY           SKY/WX    TMP DP  RH WIND       PRES   REMARKS
ANTIGO         CLOUDY    61  54  77 E7        30.07F
SHAWANO        CLOUDY    68  54  59 E9        30.06F
OCONTO         PTSUNNY   64  53  66 E7        30.08F
STURGEON BAY   MOSUNNY   64  53  67 E6        30.10F
GREEN BAY      MOSUNNY   67  57  70 NE10      30.07F
MANITOWOC      SUNNY     64  53  67 NE6       30.08F
APPLETON       MOSUNNY   70  50  49 SE9       30.04F
CLINTONVILLE   CLOUDY    68  54  60 E7        30.05F
OSHKOSH        MOSUNNY   69  54  58 E10       30.03F
$$

WIZ032>034-041-042-053>061-182300-
SOUTHWEST WISCONSIN

CITY           SKY/WX    TMP DP  RH WIND       PRES   REMARKS
LA CROSSE      LGT RAIN  61  57  87 E3        30.02F
SPARTA         HVY RAIN  59  57  93 N3        30.05S
VIROQUA        CLOUDY    60  58  92 CALM      30.04R
BOSCOBEL       CLOUDY    74  54  49 CALM      29.99S
PRAIRIE DU CHI CLOUDY    70  54  55 N8        29.99S
PLATTEVILLE    CLOUDY    74  53  48 S5        30.00S
$$

WIZ056-057-062-063-064-067-068-182300-
SOUTH CENTRAL WISCONSIN

CITY           SKY/WX    TMP DP  RH WIND       PRES   REMARKS
REEDSBURG      PTSUNNY   72  50  46 CALM      30.00S
BARABOO/DELLS  PTSUNNY   75  47  37 E8        30.00S
LONE ROCK      CLOUDY    74  50  42 S3        29.99S
MINERAL POINT  CLOUDY    73  46  38 S3        30.01S
MADISON        PTSUNNY   76  47  35 S13       30.00S
MIDDLETON      MOSUNNY   76  47  35 SE9       30.00F
WATERTOWN      SUNNY     71  57  60 E14       30.01F
MONROE         SUNNY     75  41  29 SE5       30.00S
JANESVILLE     PTSUNNY   79  43  27 E7        29.99F
$$

WIZ051-052-058>065-066-070>072-182300-
SOUTHEAST WISCONSIN

CITY           SKY/WX    TMP DP  RH WIND       PRES   REMARKS
MILWAUKEE      MOSUNNY   68  59  73 NE9       30.05F
WAUKESHA       SUNNY     68  54  60 E8        30.05F
MILWAUKEE/TIMM SUNNY     68  52  56 E7        30.06F
RACINE         SUNNY     69  58  67 NE9       30.06F
BURLINGTON     SUNNY     71  57  61 E9        30.03S
KENOSHA        SUNNY     70  54  56 NE9       30.04F
FOND DU LAC    SUNNY     70  51  51 E10       30.04F
SHEBOYGAN      SUNNY     66  55  67 NE10      30.07F
WEST BEND        N/A     66  52  59 E10       30.05F
JUNEAU         SUNNY     69  53  57 E10       30.04F
$$

LSZ147-162-182300-
LAKE SUPERIOR

STATION/POSITION TIME  TEMP    WIND        PRES    WAVE
                       AIR SEA DIR/SP/G            HT/PER
                 (UTC) (F)     (DEG/KT/KT) (MB)    (FT/S)
W MID LAKE BUOY  2150   56 55   90/  2/  2 1017.7F   1
DEVILS ISLAND    2200   58      90/  6/  7 1017.1F
SAXON HARBOR     2130   58      CALM  /  3 1016.9F
$$

LMZ867-665-643>646-182300-
LAKE MICHIGAN

STATION/POSITION TIME  TEMP    WIND        PRES    WAVE
                       AIR SEA DIR/SP/G            HT/PER
                 (UTC) (F)     (DEG/KT/KT) (MB)    (FT/S)
S GREEN BAY BUOY 2200   64 66   60/ 10/ 14 1018.5
N MID LAKE BUOY  2150   61 65   80/  6/  6 1020.0F   0
NORTHPORT PIER   2140   62     100/  6/  8 1019.3S
KEWAUNEE LAKESHO 2154   63      30/  3/  6 1018.0F
SHEBOYGAN LAKESH 2200   63      20/  9/ 10 1018.1F
PORT WASHINGTON  2140   67      50/  8/ 10 1018.6F
ATWATER BUOY     2109   65 68   50/ 10/ 12 1017.9F
MILWAUKEE LAKESH 2200   64      40/  8/  9   N/A
S MID LAKE BUOY  2150   64 69   10/  6/  8 1017.2F   2/ 5
KENOSHA   LAKESH 2200   65      40/  7/  8 1016.9
$$

TC  - TEMPERATURE IN CELSIUS
VSB - VISIBILITY IN STATUTE MILES
WCI - WIND CHILL INDEX
HX  - HEAT INDEX





USA.gov is the U.S. government's official web portal to all federal, state and local government web resources and services.